{"data":{"norad_id":59223,"epoch":"2026-05-25T00:36:48.461760Z","epoch_age_seconds":83422,"freshness":"FRESH","line1":"1 59223U 24046Y   26145.02556090  .00002249  00000+0  88008-4 0  9996","line2":"2 59223  53.1593 160.9901 0000990 129.5044 230.6045 15.30208367124729","mean_motion":15.30208367,"eccentricity":9.9e-5,"inclination_deg":53.1593,"raan_deg":160.9901,"arg_perigee_deg":129.5044,"mean_anomaly_deg":230.6045,"bstar":8.8008e-5,"rev_number":12472,"period_min":94.104831149443,"perigee_km":474.51160779769,"apogee_km":475.86856656095,"semimajor_km":6853.3270871793,"source":"CELESTRAK","updated_at":"2026-05-25T13:38:18.868868Z"}}